BREEZE M DEB (TANK) - Orbit

View from above orbital plane
View from above orbital plane
View from above satellite
View from above satellite

Ground track
Ground track

The orbit data is extracted from the following two-line orbital elements,

1 33454U 08063B   13143.74688039  .00004524  00000-0  83544-3 0   244
2 33454 049.4401 254.3670 5485395 231.1713 324.9465 04.83084008 77908
Epoch (UTC): 23 May 2013 17:55:30
Eccentricity: 0.5485395
inclination: 49.4401°
perigee height: 295 km
apogee height: 16511 km
right ascension of ascending node: 254.3670°
argument of perigee: 231.1713°
revolutions per day: 4.83084008
mean anomaly at epoch: 324.9465°
orbit number at epoch: 7790

The dashed part of the orbit path shows where the satellite is in the earth's shadow,  

Developed and maintained by Chris Peat, Heavens-Above GmbH. Please read the updated FAQ before sending e-mail. Imprint. DLR